Zurück zum Katalog

STARLINK-32948

AktivKommunikationVLEO
NORAD 63123·PAYLOAD·🇺🇸 United States

Gestartet Feb 27, 2025 von Cape Canaveral Space Force Station

Loading…

Nächste Überflüge (nächste 24 Stunden)

TLE

AktuellSource: CelesTrak SupGP

Epoche: Sep 15, 2026, 03:16 UTC

1 63123C 25039V   26258.13659722  .00004836  00000+0  17510-3 0  2587
2 63123  43.0026  22.8556 0001794 268.1861 339.8285 15.27583332    11

Verfolge STARLINK-32948 in Echtzeit mit AllMySat

Download on the App Store